Regional Weather Roundup
Issued by NWS Northern Indiana

Home | Current Version | Previous Version | Text Only | Print | Product List | Glossary Off
Versions: 1 2 3 4 5 6 7 8 9 10 11 12 13 14 15 16 17 18 19 20 21 22 23 24 25 26 27 28 29 30 31 32 33 34 35 36 37 38 39 40 41 42 43 44 45 46 47 48 49 50

000
ASUS43 KIWX 310610
RWRIWX

KIWX WEATHER ROUNDUP
NATIONAL WEATHER SERVICE NORTHERN INDIANA
200 AM EDT MON AUG 31 2015

NOTE: "FAIR" INDICATES FEW OR NO CLOUDS BELOW 12,000 FEET WITH NO
SIGNIFICANT WEATHER AND/OR OBSTRUCTIONS TO VISIBILITY.

* THESE STATIONS ARE NOT UNDER NWS QUALITY CONTROL. THEY ALSO MAY NOT
  REPORT WEATHER SUCH AS PRECIPITATION OR FOG.

INZ001>027-310700-
NORTHERN INDIANA

CITY           SKY/WX    TMP DP  RH WIND       PRES   REMARKS
GARY*          FOG       61  59  94 CALM      30.05S VSB 1
VALPARAISO     FOG       63  62  97 NE3       30.05F VSB 1/4
6HR MIN TEMP:  62; 6HR MAX TEMP:  72;

MICHIGAN CITY* FOG       61  61 100 CALM      30.05S VSB 1
LAPORTE*       FOG      N/A N/A N/A CALM      30.06S VSB 1/4
KNOX*            N/A     59  59 100 CALM      30.04S VSB 1/4
SOUTH BEND     FAIR      61  60  97 CALM      30.06S FOG
6HR MIN TEMP:  60; 6HR MAX TEMP:  72;

GOSHEN         FOG       64  63  96 CALM      30.05S VSB 1/2
6HR MIN TEMP:  63; 6HR MAX TEMP:  71; 6HR PCP: TRACE;

MONTICELLO*      N/A     68  68 100 CALM      30.04S FOG
6HR MIN TEMP:  68; 6HR MAX TEMP:  76;

LOGANSPORT*    FOG       64  63  94 CALM      30.06S VSB 1
ROCHESTER*     FOG       68  68 100 CALM      30.06S VSB 1/2
WARSAW*        FOG       63  63 100 CALM      30.06S VSB 1/4
ANGOLA*        CLOUDY    64  64 100 CALM      30.06S VSB 0
FORT WAYNE     FAIR      67  65  93 S3        30.06F FOG
6HR MIN TEMP:  67; 6HR MAX TEMP:  78;

HUNTINGTON*    FAIR      66  63  89 CALM      30.05F FOG
6HR MIN TEMP:  66; 6HR MAX TEMP:  79;

PERU/GRISSOM   FAIR      68  66  93 CALM      30.05S
6HR MIN TEMP:  68; 6HR MAX TEMP:  77;

MARION*        FAIR      65  59  81 CALM      30.07S
6HR MIN TEMP:  49; 6HR MAX TEMP:  89;


$$
INZ028>050-310700-
CENTRAL INDIANA

CITY           SKY/WX    TMP DP  RH WIND       PRES   REMARKS
LAFAYETTE      FAIR      69  66  90 CALM      30.04S
6HR MIN TEMP:  68; 6HR MAX TEMP:  80;

KOKOMO*        FAIR      66  63  88 CALM      30.06S
6HR MIN TEMP:  66; 6HR MAX TEMP:  81;

MUNCIE*        FAIR      70  66  87 SW6       30.07S
6HR MIN TEMP:  69; 6HR MAX TEMP:  77;

INDIANAPOLIS   FAIR      70  65  84 CALM      30.05F
6HR MIN TEMP:  70; 6HR MAX TEMP:  79;


$$
MIZ043>046-050>051-056>058-064>065-071>073-077>080-310700-
SOUTHWEST LOWER MICHIGAN

CITY           SKY/WX    TMP DP  RH WIND       PRES   REMARKS
BATTLE CREEK   MOCLDY    61  60  97 S5        30.06F FOG
6HR MIN TEMP:  61; 6HR MAX TEMP:  74;

BENTON HARBOR  FAIR      60  58  92 CALM      30.05S FOG
6HR MIN TEMP:  60; 6HR MAX TEMP:  65;

COLDWATER*     FOG       62  62 100 CALM      30.06S VSB 1/4
6HR MIN TEMP:  62; 6HR MAX TEMP:  73;

HILLSDALE*     FOG       64  64 100 CALM      30.07S VSB<1/4
6HR MIN TEMP:  64; 6HR MAX TEMP:  75;

HOLLAND        FOG       60  57  89 CALM      30.05F VSB 1/4
6HR MIN TEMP:  60; 6HR MAX TEMP:  69;

GRAND RAPIDS   CLOUDY    66  65  96 SW5       30.05S FOG
6HR MIN TEMP:  65; 6HR MAX TEMP:  71;

KALAMAZOO      FOG       61  59  93 CALM      30.06S VSB 1/4
6HR MIN TEMP:  59; 6HR MAX TEMP:  72;

STURGIS*       FOG       63  63 100 CALM      30.06S VSB 1/4
THREE RIVERS*  FOG       61  61 100 CALM      30.06F VSB 1/4
6HR MIN TEMP:  61; 6HR MAX TEMP:  73;


$$
OHZ001>008-015>018-024>025-310700-
NORTHWEST OHIO

CITY           SKY/WX    TMP DP  RH WIND       PRES   REMARKS
WAUSEON*       FOG       64  64 100 CALM      30.05F VSB<1/4
DEFIANCE       FAIR      68  66  93 CALM      30.05F FOG
6HR MIN TEMP:  68; 6HR MAX TEMP:  81;

FINDLAY        FAIR      68  65  90 SW5       30.05S
6HR MIN TEMP:  68; 6HR MAX TEMP:  76;

TOLEDO EXPRESS FAIR      66  66 100 CALM      30.04F FOG
6HR MIN TEMP:  66; 6HR MAX TEMP:  76; 6HR PCP: TRACE;

TOLEDO METCALF FAIR      69  65  86 S3        30.05F
6HR MIN TEMP:  69; 6HR MAX TEMP:  81;

LIMA           FAIR      69  65  86 SW5       30.07F
6HR MIN TEMP:  68; 6HR MAX TEMP:  77;


$$
AND FOR LAKE MICHIGAN COASTAL AND OPEN LAKE BUOY OBSERVATIONS

STATION/POSITION TEMP    WIND        PRES    VSBY  WAVE
                 AIR SEA DIR/SP/G                  HT/PER
                 (F)     (DEG/KT/KT) (MB)    (MI)  (FT/S)
MICHIGAN CITY     67      70/  6/  7   N/A
BURNS HARBOR      67      70/  5/  7 1017.6S
SAINT JOSEPH      64      90/  1/  2 1018.3F
SOUTH LAKE BUOY   68 68  180/  8/ 10 1016.6F         0
4 MI NW BRIDGMAN  69 71  160/  4/  4   N/A           0
MICHIGAN CITY     68 71  110/  6/  6   N/A           1

$$
&&


USA.gov is the U.S. government's official web portal to all federal, state and local government web resources and services.